Weather reports worldwide

Advertisment
Gelbelsee, Germany (10777): temperature & dewpoint: 15.06.2018 23:00:00 - 21.06.2018 23:00:00 (CEST)Gelbelsee, Germany (10777): temperature 5cm & temperature -5cm: 15.06.2018 23:00:00 - 21.06.2018 23:00:00 (CEST)Gelbelsee, Germany (10777): temperature -20cm & temperature -100cm: 15.06.2018 23:00:00 - 21.06.2018 23:00:00 (CEST)Gelbelsee, Germany (10777): wind speed & gusts: 15.06.2018 23:00:00 - 21.06.2018 23:00:00 (CEST)Gelbelsee, Germany (10777): wind direction: 15.06.2018 23:00:00 - 21.06.2018 23:00:00 (CEST)Gelbelsee, Germany (10777): reduced air pressure: 15.06.2018 23:00:00 - 21.06.2018 23:00:00 (CEST)Gelbelsee, Germany (10777): visibility: 15.06.2018 23:00:00 - 21.06.2018 23:00:00 (CEST)Gelbelsee, Germany (10777): sunshine duration: 15.06.2018 23:00:00 - 21.06.2018 23:00:00 (CEST)Gelbelsee, Germany (10777): precipitation: 15.06.2018 23:00:00 - 21.06.2018 23:00:00 (CEST)
Date & Time tt [°C] td [°C] tt 5cm [°C] tt -5cm [°C] tt -20cm [°C] tt -100cm [°C] ff [km/h] ff [kn] fx [km/h] fx [kn] dd ppp [hPa] vv [km] sd [min] rr [mm]
21.06.2018 23:00:00 16,0 4,0 14,9 21,6 24,0 16,6 15 8 28 15 NW 1018,4 36 0 0,0
21.06.2018 22:00:00 16,4 5,5 15,1 22,6 24,3 16,6 13 7 32 17 NNW 1017,4 37 0 0,0
21.06.2018 21:00:00 17,5 11,2 16,5 24,2 24,5 16,6 12 6 34 19 NW 1016,0 29 37 0,0
21.06.2018 20:00:00 18,7 10,9 19,1 25,9 24,6 16,6 20 11 39 21 NNW 1015,2 7 43 0,0
21.06.2018 19:00:00 20,0 12,4 21,0 27,1 24,6 16,6 26 14 43 23 NW 1014,4 6 35 0,0
21.06.2018 18:00:00 22,8 12,6 25,7 27,9 24,4 16,6 22 12 39 21 NW 1013,2 9 25 0,0
21.06.2018 17:00:00 22,7 10,0 24,8 28,8 24,2 16,6 26 14 49 26 WNW 1013,3 8 55 0,0
21.06.2018 16:00:00 23,8 9,2 27,9 29,2 23,9 16,6 26 14 50 27 NW 1013,3 4,0 60 0,0
21.06.2018 15:00:00 24,1 11,8 28,2 29,1 23,6 16,6 24 13 53 29 WNW 1012,8 7 22 0,0
21.06.2018 14:00:00 25,3 12,5 29,0 30,0 23,1 16,6 29 16 50 27 W 1012,3 12 49 0,0
21.06.2018 13:00:00 26,3 13,3 31,4 29,9 22,7 16,6 26 14 46 25 W 1012,2 7 50 0,0
21.06.2018 12:00:00 26,4 14,6 31,2 29,1 22,2 16,6 19 11 35 19 WSW 1012,4 8 54 0,0
21.06.2018 11:00:00 24,9 16,5 31,6 27,5 21,9 16,5 12 6 19 10 WSW 1012,7 14 51 0,0
21.06.2018 10:00:00 23,4 16,0 25,9 25,5 21,8 16,5 13 7 21 11 SW 1013,5 16 47 0,0
21.06.2018 09:00:00 21,6 15,4 23,7 23,3 21,8 16,5 10 5 16 9 SW 1014,3 20 41 0,0
21.06.2018 08:00:00 20,0 14,5 21,7 21,7 21,9 16,5 8 5 13 7 SSW 1015,0 23 48 0,0
21.06.2018 07:00:00 19,3 14,1 20,9 20,2 22,2 16,5 8 4 12 7 SW 1015,3 12 60 0,0
21.06.2018 06:00:00 18,6 13,6 17,6 19,7 22,5 16,5 8 5 13 7 SW 1015,6 23 21 0,0
21.06.2018 05:00:00 18,8 13,7 16,1 20,0 22,9 16,5 8 4 13 7 SW 1015,7 22 0 0,0
21.06.2018 04:00:00 19,2 13,9 14,3 20,4 23,2 16,5 6 3 10 5 SW 1016,3 25 0 0,0
21.06.2018 03:00:00 19,7 13,4 13,6 21,0 23,6 16,5 4 2 6 4 SSW 1016,6 32 0 0,0
21.06.2018 02:00:00 20,3 13,5 13,9 21,8 24,0 16,5 3 2 6 3 S 1016,9 36 0 0,0
21.06.2018 01:00:00 19,2 14,0 14,2 22,7 24,4 16,5 3 2 4 2 SE 1017,6 28 0 0,0
21.06.2018 00:00:00 19,8 14,2 15,1 23,7 24,8 16,5 3 1 5 3 S 1018,0 30 0 0,0
20.06.2018 23:00:00 20,2 14,6 15,7 24,9 25,0 16,5 3 2 5 3 SSE 1018,0 33 0 0,0
20.06.2018 22:00:00 22,3 13,4 17,0 26,4 25,2 16,5 3 1 6 3 S 1017,6 18 3 0,0
20.06.2018 21:00:00 23,9 14,0 21,1 28,2 25,2 16,5 4 2 10 5 S 1017,2 34 60 0,0
20.06.2018 20:00:00 25,1 13,9 25,1 30,0 25,0 16,5 6 3 14 7 S 1017,0 35 60 0,0
20.06.2018 19:00:00 25,9 13,9 27,7 31,4 24,6 16,5 5 3 15 8 ESE 1017,1 28 60 0,0
20.06.2018 18:00:00 26,2 13,9 29,2 32,3 24,1 16,5 8 4 13 7 E 1017,2 42 60 0,0
20.06.2018 17:00:00 26,8 14,2 30,6 32,1 23,6 16,5 5 3 14 8 S 1017,7 25 58 0,0
20.06.2018 16:00:00 25,8 12,8 30,3 31,5 23,0 16,4 9 5 18 10 SE 1018,5 32 50 0,0
20.06.2018 15:00:00 25,5 13,7 31,0 30,7 22,4 16,4 9 5 16 9 SSE 1019,0 17 37 0,0
20.06.2018 14:00:00 25,0 13,2 28,3 30,4 21,8 16,4 4 2 15 8 N 1019,6 38 18 0,0
20.06.2018 13:00:00 24,8 13,6 32,1 31,2 21,1 16,4 9 5 19 10 SSE 1020,2 16 60 0,0
20.06.2018 12:00:00 24,0 12,7 30,7 28,2 20,6 16,4 8 5 17 9 SE 1020,7 20 42 0,0
20.06.2018 11:00:00 22,9 14,1 27,8 26,7 20,1 16,4 9 5 21 12 ESE 1021,1 22 57 0,0
20.06.2018 10:00:00 22,9 14,7 26,6 24,2 19,9 16,4 11 6 19 10 SE 1021,3 9 60 0,0
20.06.2018 09:00:00 21,6 14,5 24,7 21,8 19,8 16,4 10 5 14 8 ESE 1021,6 8 60 0,0
20.06.2018 08:00:00 20,1 14,7 21,6 19,4 19,9 16,4 6 4 12 7 E 1022,1 15 60 0,0
20.06.2018 07:00:00 17,1 13,8 16,8 17,7 20,1 16,4 4 2 5 3 NE 1022,9 26 6 0,0
20.06.2018 06:00:00 15,2 13,3 12,4 17,1 20,4 16,4 3 2 6 3 NNE 1023,4 27 0 0,0
20.06.2018 05:00:00 14,9 13,2 11,2 17,5 20,7 16,4 4 2 5 3 N 1023,5 25 0 0,0
20.06.2018 04:00:00 15,4 13,4 11,6 18,0 21,0 16,4 4 2 4 2 NNW 1023,4 33 0 0,0
20.06.2018 03:00:00 15,7 13,3 11,6 18,6 21,3 16,4 4 2 4 2 N 1023,4 28 0 0,0
20.06.2018 02:00:00 16,6 13,3 12,6 19,2 21,6 16,4 2 1 4 2 SE 1023,7 29 0 0,0
20.06.2018 01:00:00 16,8 13,6 13,0 20,0 21,9 16,4 3 1 4 2 N 1023,8 36 0 0,0
20.06.2018 00:00:00 17,5 13,5 13,2 20,7 22,2 16,4 3 2 5 3 N 1023,5 47 0 0,0
19.06.2018 23:00:00 18,5 13,6 14,9 21,8 22,4 16,3 4 2 6 3 N 1023,3 40 0 0,0
19.06.2018 22:00:00 18,9 13,9 16,0 22,8 22,5 16,3 4 2 8 4 N 1023,2 57 0 0,0
19.06.2018 21:00:00 20,2 14,4 20,2 23,8 22,5 16,3 5 3 10 6 NW 1022,6 42 0 0,0
19.06.2018 20:00:00 21,8 13,6 21,6 25,0 22,4 16,3 9 5 15 8 NNW 1022,2 36 36 0,0
19.06.2018 19:00:00 22,3 13,4 23,0 25,9 22,2 16,3 7 4 13 7 NNW 1022,2 42 28 0,0
19.06.2018 18:00:00 22,2 13,9 25,0 26,7 21,9 16,3 7 4 16 9 NW 1022,2 45 23 0,0
19.06.2018 17:00:00 21,7 13,4 24,0 26,9 21,5 16,3 9 5 21 11 NNW 1022,6 39 16 0,0
19.06.2018 16:00:00 22,0 13,3 27,0 27,1 21,1 16,3 10 6 18 10 NW 1022,9 23 8 0,0
19.06.2018 15:00:00 22,0 12,8 28,2 27,3 20,6 16,3 10 5 19 10 NW 1023,0 20 40 0,0
19.06.2018 14:00:00 21,4 13,4 27,2 25,6 20,2 16,3 11 6 23 13 WNW 1023,3 31 31 0,0
19.06.2018 13:00:00 20,1 12,2 24,5 23,5 20,0 16,3 12 7 23 12 NW 1023,9 18 5 0,0
19.06.2018 12:00:00 19,8 13,3 23,5 23,0 19,7 16,3 11 6 19 11 W 1023,8 34 5 0,0
19.06.2018 11:00:00 19,4 12,9 22,7 22,3 19,5 16,3 8 4 18 10 W 1023,8 41 15 0,0
19.06.2018 10:00:00 18,4 12,8 21,5 21,6 19,4 16,3 8 4 16 9 SW 1024,1 34 45 0,0
19.06.2018 09:00:00 17,4 12,3 21,5 19,2 19,3 16,3 6 3 11 6 W 1024,2 26 7 0,0
19.06.2018 08:00:00 16,8 11,8 18,9 18,3 19,4 16,3 9 5 11 6 SW 1024,0 13 48 0,0
19.06.2018 07:00:00 15,9 11,1 17,0 16,9 19,6 16,3 6 4 12 7 W 1024,0 29 48 0,0
19.06.2018 06:00:00 14,6 10,5 14,9 16,2 19,9 16,3 8 5 12 6 WNW 1024,1 21 23 0,0
19.06.2018 05:00:00 14,2 10,5 12,5 16,1 20,3 16,3 10 5 18 10 WNW 1023,9 33 0 0,0
19.06.2018 04:00:00 14,5 10,6 13,4 16,4 20,7 16,3 8 5 15 8 NW 1023,5 33 0 0,0
19.06.2018 03:00:00 14,7 10,4 12,0 16,6 21,1 16,3 9 5 14 7 WNW 1023,4 33 0 0,0
19.06.2018 02:00:00 14,7 10,6 11,5 17,3 21,5 16,2 6 3 12 6 NW 1023,5 36 0 0,0
19.06.2018 01:00:00 15,5 10,6 12,9 18,1 22,0 16,2 8 5 15 8 NW 1023,4 35 0 0,0
19.06.2018 00:00:00 16,2 10,6 12,6 19,1 22,5 16,2 8 4 11 6 NW 1023,2 38 0 0,0
18.06.2018 23:00:00 17,1 10,6 13,2 20,3 22,9 16,2 6 3 10 5 NNW 1022,6 40 0 0,0
18.06.2018 22:00:00 17,5 10,7 14,1 22,0 23,2 16,2 5 3 11 6 NW 1022,2 36 4 0,0
18.06.2018 21:00:00 19,1 10,4 17,7 24,4 23,4 16,2 8 4 19 11 WNW 1021,5 49 59 0,0
18.06.2018 20:00:00 20,6 10,2 21,0 26,9 23,3 16,2 9 5 22 12 WNW 1020,7 38 60 0,0
18.06.2018 19:00:00 21,4 10,1 22,7 28,7 23,1 16,2 15 8 27 14 W 1020,5 28 59 0,0
18.06.2018 18:00:00 21,6 9,2 24,6 30,2 22,7 16,2 14 8 27 14 WNW 1020,5 23 59 0,0
18.06.2018 17:00:00 21,5 8,8 24,1 30,5 22,2 16,2 9 5 22 12 W 1020,4 36 53 0,0
18.06.2018 16:00:00 21,2 10,2 24,7 29,8 21,6 16,2 13 7 32 18 W 1020,9 31 42 0,0
18.06.2018 15:00:00 19,9 8,7 24,5 30,3 20,9 16,2 12 6 22 12 W 1021,1 40 50 0,0
18.06.2018 14:00:00 20,1 9,9 25,4 27,6 20,3 16,2 11 6 22 12 W 1021,5 18 30 0,0
18.06.2018 13:00:00 19,6 9,9 24,9 27,5 19,6 16,2 12 7 25 13 WSW 1021,7 28 55 0,0
18.06.2018 12:00:00 19,2 11,0 24,7 25,3 19,1 16,2 10 5 25 14 WSW 1021,7 24 60 0,0
18.06.2018 11:00:00 17,7 10,2 24,5 22,3 18,8 16,2 12 7 26 14 WNW 1022,0 11 55 0,0
18.06.2018 10:00:00 16,8 11,4 20,7 19,4 18,7 16,2 10 6 19 11 WNW 1022,2 18 1 0,0
18.06.2018 09:00:00 15,0 10,5 16,5 17,7 18,8 16,2 14 8 21 12 WNW 1022,5 25 0 0,0
18.06.2018 08:00:00 14,6 10,8 15,3 16,8 18,9 16,2 9 5 18 10 NW 1021,9 28 1 0,0
18.06.2018 07:00:00 14,6 11,1 15,0 16,3 19,1 16,2 9 5 14 7 WNW 1021,6 29 1 0,0
18.06.2018 06:00:00 14,4 11,0 14,2 16,1 19,4 16,2 9 5 16 9 WNW 1021,4 38 0 0,0
18.06.2018 05:00:00 14,2 11,4 13,0 16,2 19,7 16,2 9 5 16 9 WNW 1021,2 30 0 0,0
18.06.2018 04:00:00 14,7 11,6 13,6 16,5 20,0 16,2 10 5 16 9 WNW 1021,0 31 0 0,0
18.06.2018 03:00:00 15,3 11,4 14,2 17,1 20,3 16,2 11 6 17 9 WNW 1020,8 34 0 0,0
18.06.2018 02:00:00 15,5 11,5 14,4 17,6 20,6 16,2 9 5 14 8 WNW 1020,6 33 0 0,0
18.06.2018 01:00:00 16,0 11,5 14,5 18,1 20,9 16,2 8 5 13 7 WNW 1020,1 35 0 0,0
18.06.2018 00:00:00 16,3 11,5 14,8 18,7 21,3 16,2 9 5 14 8 WNW 1020,0 48 0 0,0
17.06.2018 23:00:00 17,0 11,6 15,9 19,6 21,6 16,2 7 4 13 7 WNW 1019,4 43 0 0,0
17.06.2018 22:00:00 17,6 11,4 16,3 20,5 21,9 16,2 8 5 16 9 NW 1018,9 49 0 0,0
17.06.2018 21:00:00 18,2 11,6 16,8 21,9 22,1 16,2 6 4 18 10 NW 1017,9 42 0 0,0
17.06.2018 20:00:00 19,4 11,3 19,0 23,9 22,1 16,2 13 7 29 15 NNW 1017,2 27 42 0,0
17.06.2018 19:00:00 20,5 11,7 21,2 25,1 22,0 16,2 17 9 33 18 NW 1016,5 21 26 0,0
17.06.2018 18:00:00 21,5 12,4 23,6 28,0 21,6 16,2 13 7 34 19 NNW 1015,8 20 51 0,0
17.06.2018 17:00:00 22,0 12,2 26,1 28,6 21,2 16,2 16 9 30 16 WNW 1016,1 19 56 0,0
17.06.2018 16:00:00 21,0 11,4 24,6 27,1 20,8 16,2 20 11 31 17 W 1016,5 10 32 0,0
17.06.2018 15:00:00 20,7 14,3 23,9 24,8 20,6 16,2 14 7 27 14 NW 1016,4 17 1 0,0
17.06.2018 14:00:00 20,7 13,9 23,5 23,9 20,3 16,2 13 7 21 12 NW 1016,5 24 0 0,0
17.06.2018 13:00:00 19,4 14,4 19,1 25,0 19,9 16,2 11 6 24 13 NW 1016,8 18 17 0,1
17.06.2018 12:00:00 20,3 13,9 25,0 25,1 19,4 16,2 16 9 27 14 NNW 1016,6 14 11 0,0
17.06.2018 11:00:00 20,9 14,0 27,0 24,2 18,9 16,2 16 9 26 14 NNW 1016,3 14 45 0,0
17.06.2018 10:00:00 20,4 14,4 24,9 21,9 18,6 16,2 13 7 20 11 WNW 1016,2 12 39 0,0
17.06.2018 09:00:00 18,9 12,3 21,1 20,1 18,5 16,2 10 6 21 11 NW 1016,1 15 39 0,0
17.06.2018 08:00:00 19,0 11,5 22,4 17,9 18,6 16,2 8 5 13 7 WNW 1015,8 10 59 0,0
17.06.2018 07:00:00 16,1 11,4 15,8 16,1 18,8 16,2 6 3 9 5 SW 1015,9 23 4 0,0
17.06.2018 06:00:00 15,1 11,2 13,2 16,0 19,0 16,2 4 2 6 3 WSW 1016,1 21 0 0,0
17.06.2018 05:00:00 14,4 11,2 13,8 15,9 19,3 16,2 3 1 5 3 NW 1016,1 22 0 0,0
17.06.2018 04:00:00 14,9 9,9 11,6 15,5 19,7 16,2 2 1 6 3 WSW 1015,9 32 0 0,0
17.06.2018 03:00:00 14,5 9,9 10,7 16,0 20,1 16,2 2 1 5 3 NW 1016,0 29 0 0,0
17.06.2018 02:00:00 16,2 11,0 11,6 16,6 20,5 16,2 3 1 5 3 N 1015,6 29 0 0,0
17.06.2018 01:00:00 16,3 10,7 11,7 17,3 21,0 16,2 4 2 6 3 NNW 1015,8 28 0 0,0
17.06.2018 00:00:00 16,4 10,7 12,2 18,2 21,4 16,2 7 4 10 5 NNW 1015,9 34 0 0,0
16.06.2018 23:00:00 17,3 10,3 13,4 19,3 21,8 16,3 5 3 7 4 NW 1015,5 33 0 0,0
16.06.2018 22:00:00 17,6 10,1 14,2 20,8 22,2 16,3 5 3 9 5 W 1015,2 30 0 0,0
16.06.2018 21:00:00 19,4 8,3 16,0 22,8 22,4 16,3 0 0 6 4 N 1014,3 49 0 0,0
16.06.2018 20:00:00 21,3 8,8 18,8 24,8 22,5 16,3 5 3 6 4 SW 1013,8 54 21 0,0
16.06.2018 19:00:00 22,4 11,8 22,5 26,8 22,4 16,3 4 2 9 5 WSW 1013,3 44 19 0,0
16.06.2018 18:00:00 23,3 8,2 24,9 29,4 21,9 16,3 6 3 16 9 SE 1013,2 44 39 0,0
16.06.2018 17:00:00 23,8 8,9 27,9 31,1 21,3 16,3 6 3 19 11 ESE 1013,3 27 51 0,0
16.06.2018 16:00:00 22,6 8,8 25,2 30,7 20,6 16,3 9 5 21 12 ENE 1013,7 26 36 0,0
16.06.2018 15:00:00 22,7 8,9 27,9 31,9 19,6 16,3 10 5 20 11 ESE 1014,0 24 60 0,0
16.06.2018 14:00:00 22,3 7,7 27,6 29,7 18,7 16,3 8 4 18 10 E 1014,6 19 60 0,0
16.06.2018 13:00:00 22,6 10,1 28,2 27,2 17,9 16,3 6 3 19 10 SE 1014,9 18 60 0,0
16.06.2018 12:00:00 21,5 10,7 26,2 23,8 17,3 16,4 10 5 18 10 ESE 1015,4 15 51 0,0
16.06.2018 11:00:00 21,1 11,5 25,1 22,0 16,7 16,4 9 5 16 9 E 1015,3 16 60 0,0
16.06.2018 10:00:00 19,7 11,4 22,9 19,7 16,4 16,4 10 5 18 10 ESE 1015,7 7 60 0,0
16.06.2018 09:00:00 18,0 10,4 20,2 17,4 16,2 16,4 13 7 19 10 ESE 1016,2 2,7 60 0,0
16.06.2018 08:00:00 16,4 11,3 17,3 15,2 16,2 16,4 8 4 13 7 E 1016,3 6 60 0,0
16.06.2018 07:00:00 14,5 10,3 14,8 13,0 16,4 16,4 6 3 9 5 E 1016,5 23 60 0,0
16.06.2018 06:00:00 12,0 9,3 9,8 12,1 16,7 16,4 5 3 9 5 NNE 1016,9 21 12 0,0
16.06.2018 05:00:00 12,7 9,3 8,4 12,3 17,0 16,4 5 3 11 6 NNE 1016,8 24 0 0,0
16.06.2018 04:00:00 12,9 8,8 8,9 12,7 17,4 16,4 8 4 8 5 N 1017,0 26 0 0,0
16.06.2018 03:00:00 12,9 8,9 8,7 13,1 17,7 16,4 7 4 9 5 N 1017,2 35 0 0,0
16.06.2018 02:00:00 13,3 8,8 8,7 13,6 18,1 16,4 6 3 8 4 N 1017,3 33 0 0,0
16.06.2018 01:00:00 13,2 8,9 9,1 14,2 18,5 16,4 6 3 6 3 N 1017,7 36 0 0,0
16.06.2018 00:00:00 13,9 9,5 9,5 15,0 18,8 16,5 4 2 4 2 NNW 1017,3 34 0 0,0
15.06.2018 23:00:00 14,8 8,8 10,0 16,0 19,2 16,5 4 2 6 3 NNW 1017,1 39 0 0,0

tt = temperature
td = dewpoint
tt 5cm = temperature 5cm
tt -5cm = temperature -5cm
tt -20cm = temperature -20cm
tt -100cm = temperature -100cm
ff = wind speed
fx = gusts
dd = wind direction
ppp = reduced air pressure
vv = visibility
sd = sunshine duration
rr = precipitation

Next stations